Lowell, ID

6:32 PM MDT on June 25, 2017 (GMT -0600)
Lowell

Weather History for KP69 - October, 2012

Change the Weather History Date:

Monday, October 29, 2012

  Actual Average Record
Temperature  
Mean Temperature 50 °F -  
Max Temperature 55 °F 50 °F 60 °F (2008)
Min Temperature 46 °F 34 °F 28 °F (2002)
Degree Days  
Heating Degree Days 14    
Moisture  
Dew Point 47 °F    
Average Humidity 93    
Maximum Humidity 97    
Minimum Humidity 86    
Precipitation  
Precipitation 1.06 in - - ()
Sea Level Pressure  
Sea Level Pressure 30.04 in    
Wind  
Wind Speed 2 mph (NNW)    
Max Wind Speed 5 mph    
Max Gust Speed -    
Averages and records for this station are not official NWS values.
T = Trace of Precipitation, MM = Missing Value Source: NWS Daily Summary

Daily Weather History Graph

Daily Weather History Graph

Search for Another Location

Airport or City:

Trip Planner

Search our weather history database for the weather conditions in past years. The results will help you decide how hot, cold, wet, or windy it might be!

Date:

Astronomy

Oct. 29, 2012 Rise Set
Actual Time 8:18 AM MDT 6:31 PM MDT
Civil Twilight 7:47 AM MDT 7:02 PM MDT
Nautical Twilight 7:12 AM MDT 7:37 PM MDT
Astronomical Twilight 6:37 AM MDT 8:12 PM MDT
Moon 6:23 PM MDT (10/29) 8:14 AM MDT (10/29)
Length of Visible Light 11h 15m
Length of Day
10h 13m
Full, 100% of the Moon is Illuminated
Oct 29
Full
Oct 29
Full
Nov 6
Last Quarter
Nov 13
New
Nov 20
First Quarter

Hourly Weather History & Observations

Time (MDT) Temp. Windchill Dew Point Humidity Pressure Visibility Wind Dir Wind Speed Gust Speed Precip Events Conditions
12:52 AM 46.0 °F 44.8 °F 44.1 °F 93% 30.00 in - NW 3.5 mph - 0.08 in   Unknown
1:52 AM 46.0 °F - 44.1 °F 93% 29.99 in - Calm Calm - 0.06 in   Unknown
2:52 AM 46.0 °F 44.8 °F 45.0 °F 96% 29.99 in - NNW 3.5 mph - 0.10 in   Unknown
3:52 AM 46.0 °F 44.8 °F 44.1 °F 93% 29.98 in - North 3.5 mph - 0.10 in   Unknown
4:52 AM 46.0 °F 44.8 °F 44.1 °F 93% 29.98 in - NNW 3.5 mph - 0.10 in   Unknown
5:52 AM 46.0 °F 43.9 °F 44.1 °F 93% 29.97 in - North 4.6 mph - 0.06 in   Unknown
6:00 AM - - - N/A% - - North - - N/A   Unknown
6:52 AM 46.0 °F - 44.1 °F 93% 30.00 in - Calm Calm - 0.09 in   Unknown
7:52 AM 46.0 °F - 45.0 °F 96% 30.00 in - Calm Calm - 0.17 in   Unknown
8:52 AM 46.0 °F 43.9 °F 45.0 °F 96% 30.01 in - North 4.6 mph - 0.07 in   Unknown
9:52 AM 46.0 °F - 45.0 °F 96% 30.02 in - Calm Calm - 0.07 in   Unknown
10:52 AM 46.9 °F - 45.0 °F 93% 30.03 in - Calm Calm - 0.05 in   Unknown
11:52 AM 48.0 °F - 46.0 °F 93% 30.04 in - Calm Calm - 0.03 in   Unknown
12:52 PM 53.1 °F - 50.0 °F 89% 30.03 in - Calm Calm - N/A   Unknown
1:52 PM 54.0 °F - 50.0 °F 86% 30.02 in - Calm Calm - N/A   Unknown
2:52 PM 55.0 °F - 52.0 °F 89% 30.02 in - Calm Calm - N/A   Unknown
3:52 PM 55.0 °F - 53.1 °F 93% 30.02 in - Calm Calm - N/A   Unknown
4:52 PM 53.1 °F - 51.1 °F 93% 30.06 in - SSW 4.6 mph - 0.03 in   Unknown
5:52 PM 53.1 °F - 51.1 °F 93% 30.09 in - Calm Calm - 0.04 in   Unknown
6:52 PM 51.1 °F - 48.9 °F 92% 30.10 in - Calm Calm - 0.01 in   Unknown
7:52 PM 50.0 °F - 48.0 °F 93% 30.13 in - Variable 3.5 mph - N/A   Unknown
8:52 PM 50.0 °F - 48.0 °F 93% 30.14 in - Calm Calm - N/A   Unknown
9:52 PM 50.0 °F - 48.0 °F 93% 30.14 in - Calm Calm - N/A   Unknown
10:52 PM 48.9 °F - 48.0 °F 97% 30.15 in - Calm Calm - N/A   Unknown
11:52 PM 48.9 °F - 46.9 °F 93% 30.16 in - Calm Calm - N/A   Unknown